Location: Unspecified
(41.1637°N, 24.2901°E)
Time: 01:52:32
(UTC+02:00)

ISS - Pass Details

Date: 13 January 2019
Orbit: 408 x 410 km, 51.6° (Epoch: 25 April)

Event Time Altitude Azimuth Distance (km) Brightness Sun altitude
Exits shadow 05:48:26 12° 253° (WSW) 1,364 -1.6 -10.9°
Maximum altitude 05:49:38 14° 230° (SW) 1,262 -1.6 -10.7°
Drops below altitude 10° 05:51:24 10° 197° (SSW) 1,468 -1.0 -10.4°
Sets 05:54:13 0° 170° (S) 2,321 0.5 -9.9°
